| time (UTC) | temp C | wind direction | speed KPH | gust KPH | rain 1hr cm | rain 24hr cm | rain mn cm | humidity % | barometer mb |
| 20260905080014 | 13 | 325 | 0.0 | 0.0 | 0.00 | 0.00 | 0.00 | 100 | 1011.6 |
| 20260905074513 | 12 | 325 | 0.0 | 0.0 | 0.00 | 0.00 | 0.00 | 100 | 1011.7 |
| 20260905073005 | 12 | 325 | 0.0 | 0.0 | 0.00 | 0.00 | 0.00 | 100 | 1011.7 |
| 20260905071503 | 12 | 325 | 0.0 | 0.0 | 0.00 | 0.00 | 0.00 | 100 | 1011.8 |
| 20260905070111 | 12 | 325 | 0.0 | 0.0 | 0.00 | 0.00 | 0.00 | 100 | 1011.9 |
| 20260905064552 | 12 | 325 | 0.0 | 0.0 | 0.00 | 0.00 | 0.00 | 100 | 1012.0 |
| 20260905063056 | 12 | 325 | 0.0 | 0.0 | 0.00 | 0.00 | 0.00 | 100 | 1012.1 |
| 20260905061544 | 12 | 325 | 0.0 | 0.0 | 0.00 | 0.00 | 0.00 | 100 | 1012.1 |
| 20260905060040 | 12 | 325 | 0.0 | 0.0 | 0.00 | 0.00 | 0.00 | 100 | 1012.2 |
| 20260905054547 | 12 | 325 | 0.0 | 0.0 | 0.00 | 0.00 | 0.00 | 100 | 1012.3 |
| 20260905053032 | 12 | 325 | 0.0 | 0.0 | 0.00 | 0.00 | 0.00 | 100 | 1012.3 |
| 20260905051527 | 12 | 325 | 0.0 | 0.0 | 0.00 | 0.00 | 0.00 | 100 | 1012.4 |
| 20260905050026 | 12 | 325 | 0.0 | 0.0 | 0.00 | 0.00 | 0.00 | 100 | 1012.6 |
| 20260905044522 | 12 | 325 | 0.0 | 0.0 | 0.00 | 0.00 | 0.00 | 100 | 1012.7 |
| 20260905043021 | 12 | 325 | 0.0 | 0.0 | 0.00 | 0.00 | 0.00 | 100 | 1012.7 |
| 20260905041513 | 12 | 325 | 0.0 | 0.0 | 0.00 | 0.00 | 0.00 | 100 | 1012.7 |
| 20260905040013 | 12 | 325 | 0.0 | 0.0 | 0.00 | 0.00 | 0.00 | 100 | 1012.6 |
| 20260905034506 | 12 | 325 | 0.0 | 0.0 | 0.00 | 0.00 | 0.03 | 100 | 1012.6 |
| 20260905033002 | 13 | 325 | 0.0 | 0.0 | 0.00 | 0.00 | 0.03 | 100 | 1012.7 |
| 20260905031605 | 13 | 325 | 0.0 | 0.0 | 0.00 | 0.00 | 0.03 | 100 | 1012.5 |
| 20260905030101 | 13 | 325 | 0.0 | 0.0 | 0.00 | 0.00 | 0.03 | 100 | 1012.4 |
| 20260905024600 | 13 | 325 | 0.0 | 0.0 | 0.00 | 0.00 | 0.03 | 100 | 1012.4 |
| 20260905023048 | 13 | 325 | 0.0 | 0.0 | 0.00 | 0.00 | 0.03 | 100 | 1012.6 |
| 20260905021544 | 13 | 325 | 0.0 | 0.0 | 0.00 | 0.00 | 0.03 | 100 | 1012.4 |
| 20260905020038 | 14 | 325 | 0.0 | 0.0 | 0.00 | 0.00 | 0.03 | 100 | 1012.5 |
| 20260905014534 | 14 | 325 | 0.0 | 0.0 | 0.00 | 0.00 | 0.03 | 100 | 1012.7 |
| 20260905013032 | 15 | 325 | 0.0 | 0.0 | 0.00 | 0.00 | 0.03 | 100 | 1012.6 |
| 20260905011525 | 15 | 325 | 0.0 | 0.0 | 0.00 | 0.00 | 0.03 | 100 | 1012.4 |
| 20260905010026 | 15 | 325 | 0.0 | 0.0 | 0.00 | 0.00 | 0.03 | 1 | 1012.5 |
| 20260905004520 | 16 | 325 | 0.0 | 0.0 | 0.00 | 0.00 | 0.03 | 11 | 1012.7 |
| 20260905003015 | 17 | 325 | 0.0 | 0.0 | 0.00 | 0.00 | 0.03 | 20 | 1012.6 |
| 20260905001511 | 17 | 325 | 0.0 | 0.0 | 0.00 | 0.00 | 0.03 | 31 | 1012.2 |
| 20260905000007 | 18 | 325 | 0.0 | 0.0 | 0.00 | 0.00 | 0.03 | 42 | 1012.1 |
| 20260904234503 | 19 | 325 | 0.0 | 0.0 | 0.00 | 0.00 | 0.03 | 51 | 1011.9 |
| 20260904233059 | 20 | 325 | 0.0 | 0.0 | 0.00 | 0.00 | 0.03 | 56 | 1011.9 |
| 20260904231555 | 20 | 325 | 0.0 | 0.0 | 0.00 | 0.00 | 0.03 | 58 | 1011.7 |
| 20260904230117 | 21 | 324 | 0.0 | 0.0 | 0.00 | 0.00 | 0.03 | 57 | 1011.6 |
| 20260904224548 | 21 | 323 | 0.0 | 0.0 | 0.00 | 0.00 | 0.03 | 57 | 1011.7 |
| 20260904223044 | 21 | 323 | 1.6 | 0.0 | 0.00 | 0.00 | 0.03 | 58 | 1011.5 |
| 20260904221539 | 21 | 328 | 1.6 | 0.0 | 0.00 | 0.00 | 0.03 | 57 | 1011.4 |
| 20260904220035 | 22 | 339 | 1.6 | 0.0 | 0.00 | 0.00 | 0.03 | 56 | 1011.2 |
| 20260904214531 | 22 | 302 | 3.2 | 0.0 | 0.00 | 0.00 | 0.03 | 55 | 1011.2 |
| 20260904213027 | 22 | 296 | 1.6 | 0.0 | 0.00 | 0.00 | 0.03 | 55 | 1011.2 |
| 20260904211522 | 22 | 331 | 1.6 | 0.0 | 0.00 | 0.00 | 0.03 | 56 | 1011.2 |
| 20260904210022 | 22 | 5 | 4.8 | 0.0 | 0.00 | 0.00 | 0.03 | 55 | 1011.4 |
| 20260904204521 | 23 | 337 | 3.2 | 0.0 | 0.00 | 0.00 | 0.03 | 54 | 1011.6 |
| 20260904203014 | 23 | 263 | 4.8 | 0.0 | 0.00 | 0.00 | 0.03 | 54 | 1011.5 |
| 20260904201509 | 23 | 285 | 6.4 | 0.0 | 0.00 | 0.00 | 0.03 | 54 | 1011.5 |
| 20260904200006 | 23 | 244 | 8.0 | 0.0 | 0.00 | 0.00 | 0.03 | 53 | 1011.4 |
| 20260904194608 | 23 | 282 | 6.4 | 0.0 | 0.00 | 0.00 | 0.03 | 52 | 1011.5 |
| 20260904193055 | 24 | 292 | 3.2 | 0.0 | 0.00 | 0.00 | 0.03 | 52 | 1011.5 |
| 20260904191551 | 23 | 281 | 4.8 | 0.0 | 0.00 | 0.00 | 0.03 | 52 | 1011.7 |
| 20260904190050 | 23 | 297 | 3.2 | 0.0 | 0.00 | 0.00 | 0.03 | 53 | 1011.8 |
| 20260904184543 | 23 | 309 | 3.2 | 0.0 | 0.00 | 0.00 | 0.03 | 53 | 1011.9 |
| 20260904183038 | 23 | 306 | 3.2 | 0.0 | 0.00 | 0.00 | 0.03 | 52 | 1012.2 |
| 20260904181535 | 22 | 350 | 3.2 | 0.0 | 0.00 | 0.00 | 0.03 | 53 | 1012.3 |
| 20260904180032 | 22 | 360 | 4.8 | 0.0 | 0.00 | 0.00 | 0.03 | 54 | 1012.3 |
| 20260904174527 | 23 | 304 | 4.8 | 0.0 | 0.00 | 0.00 | 0.03 | 53 | 1012.6 |
| 20260904173023 | 22 | 309 | 3.2 | 0.0 | 0.00 | 0.00 | 0.03 | 52 | 1012.6 |
| 20260904171520 | 22 | 336 | 4.8 | 0.0 | 0.00 | 0.00 | 0.03 | 53 | 1012.6 |
| 20260904170018 | 22 | 360 | 1.6 | 0.0 | 0.00 | 0.00 | 0.03 | 51 | 1012.5 |
| 20260904164516 | 22 | 344 | 3.2 | 0.0 | 0.00 | 0.00 | 0.03 | 51 | 1012.6 |
| 20260904163010 | 22 | 247 | 3.2 | 0.0 | 0.00 | 0.00 | 0.03 | 50 | 1012.3 |
| 20260904161505 | 21 | 360 | 8.0 | 0.0 | 0.00 | 0.00 | 0.03 | 50 | 1012.7 |
| 20260904160004 | 21 | 336 | 1.6 | 0.0 | 0.00 | 0.00 | 0.03 | 46 | 1012.8 |
| 20260904154600 | 21 | 323 | 1.6 | 0.0 | 0.00 | 0.00 | 0.03 | 44 | 1013.2 |
| 20260904153106 | 21 | 349 | 3.2 | 0.0 | 0.00 | 0.00 | 0.03 | 43 | 1013.2 |
| 20260904151552 | 21 | 13 | 1.6 | 0.0 | 0.00 | 0.00 | 0.03 | 39 | 1013.1 |
| 20260904144546 | 20 | 342 | 3.2 | 0.0 | 0.00 | 0.00 | 0.03 | 28 | 1013.5 |
| 20260904143040 | 20 | 261 | 1.6 | 0.0 | 0.00 | 0.00 | 0.03 | 20 | 1013.8 |
| 20260904141537 | 19 | 259 | 1.6 | 0.0 | 0.00 | 0.00 | 0.03 | 7 | 1013.6 |
| 20260904140034 | 18 | 268 | 0.0 | 0.0 | 0.00 | 0.00 | 0.03 | 100 | 1013.4 |
| 20260904134531 | 18 | 289 | 0.0 | 0.0 | 0.00 | 0.00 | 0.03 | 100 | 1013.5 |
| 20260904133025 | 18 | 290 | 1.6 | 0.0 | 0.00 | 0.00 | 0.03 | 100 | 1013.5 |
| 20260904131523 | 18 | 305 | 0.0 | 0.0 | 0.00 | 0.00 | 0.03 | 100 | 1013.5 |
| 20260904130035 | 18 | 309 | 1.6 | 0.0 | 0.00 | 0.00 | 0.03 | 100 | 1013.5 |
| 20260904124510 | 18 | 307 | 1.6 | 0.0 | 0.00 | 0.00 | 0.03 | 100 | 1013.4 |
| 20260904123015 | 18 | 280 | 3.2 | 0.0 | 0.00 | 0.00 | 0.03 | 100 | 1013.4 |
| 20260904121501 | 17 | 289 | 1.6 | 0.0 | 0.00 | 0.00 | 0.03 | 100 | 1013.1 |
| 20260904114554 | -17 | 0.0 | 0.0 | 0.00 | 0.00 | 0.03 | 1013.0 | ||
| 20260904113050 | -17 | 0.0 | 0.0 | 0.00 | 0.00 | 0.03 | 1012.9 | ||
| 20260904111544 | 17 | 298 | 0.0 | 0.0 | 0.00 | 0.00 | 0.03 | 100 | 1012.8 |
| 20260904104536 | 17 | 302 | 0.0 | 0.0 | 0.00 | 0.00 | 0.03 | 100 | 1012.5 |
| 20260904103032 | 17 | 302 | 0.0 | 0.0 | 0.00 | 0.00 | 0.03 | 100 | 1012.4 |
| 20260904101531 | 18 | 302 | 0.0 | 0.0 | 0.00 | 0.00 | 0.03 | 100 | 1012.2 |
| 20260904094522 | 18 | 310 | 0.0 | 0.0 | 0.00 | 0.00 | 0.03 | 100 | 1012.2 |
| 20260904093021 | 18 | 310 | 0.0 | 0.0 | 0.00 | 0.00 | 0.03 | 100 | 1012.4 |
| 20260904091519 | 18 | 310 | 0.0 | 0.0 | 0.00 | 0.00 | 0.03 | 100 | 1012.2 |
| 20260904084506 | 18 | 311 | 0.0 | 0.0 | 0.00 | 0.00 | 0.03 | 100 | 1012.1 |
| 20260904083001 | 18 | 311 | 0.0 | 0.0 | 0.00 | 0.00 | 0.00 | 100 | 1012.1 |
| 20260904081600 | 18 | 311 | 0.0 | 0.0 | 0.00 | 0.00 | 0.00 | 100 | 1011.9 |